Location: Chippewa Lake
(41.0698°N, 81.9010°W)
Time: 21:33:49
(UTC+00:00)

Spot 2 Rocket - Pass Details

Date: 27 September 2021
Orbit: 757 x 772 km, 98.5° (Epoch: 15 October)

Event Time Altitude Azimuth Distance (km) Brightness Sun altitude
Exits shadow 02:20:26 16° 8° (N) 1,935 5.8 -33.8°
Drops below altitude 10° 02:21:26 10° 2° (N) 2,296 6.3 -34.0°
Sets 02:23:52 0° 355° (N) 3,227 7.2 -34.3°
